| time (UTC) | temp C | wind direction | speed KPH | gust KPH | rain 1hr cm | rain 24hr cm | rain mn cm | humidity % | barometer mb |
| 20260503185144 | 21 | 7 | 6.4 | 6.4 | 0.00 | 0.00 | 0.00 | 37 | 1016.9 |
| 20260503184639 | 21 | 28 | 1.6 | 4.8 | 0.00 | 0.00 | 0.00 | 40 | 1017.0 |
| 20260503184136 | 21 | 43 | 4.8 | 4.8 | 0.00 | 0.00 | 0.00 | 40 | 1017.2 |
| 20260503183632 | 20 | 268 | 0.0 | 8.0 | 0.00 | 0.00 | 0.00 | 37 | 1017.0 |
| 20260503183130 | 21 | 32 | 4.8 | 6.4 | 0.00 | 0.00 | 0.00 | 40 | 1017.1 |
| 20260503182628 | 20 | 111 | 3.2 | 4.8 | 0.00 | 0.00 | 0.00 | 37 | 1017.3 |
| 20260503182126 | 20 | 72 | 4.8 | 9.7 | 0.00 | 0.00 | 0.00 | 38 | 1017.2 |
| 20260503181622 | 20 | 6 | 3.2 | 3.2 | 0.00 | 0.00 | 0.00 | 40 | 1017.3 |
| 20260503181119 | 20 | 18 | 3.2 | 3.2 | 0.00 | 0.00 | 0.00 | 43 | 1017.6 |
| 20260503180616 | 20 | 12 | 3.2 | 4.8 | 0.00 | 0.00 | 0.00 | 40 | 1017.5 |
| 20260503180114 | 20 | 58 | 3.2 | 6.4 | 0.00 | 0.00 | 0.00 | 38 | 1017.6 |
| 20260503175611 | 20 | 24 | 3.2 | 4.8 | 0.00 | 0.00 | 0.00 | 42 | 1017.4 |
| 20260503175108 | 19 | 65 | 1.6 | 9.7 | 0.00 | 0.00 | 0.00 | 40 | 1017.5 |
| 20260503174605 | 19 | 54 | 3.2 | 6.4 | 0.00 | 0.00 | 0.00 | 42 | 1017.6 |
| 20260503174101 | 19 | 41 | 1.6 | 6.4 | 0.00 | 0.00 | 0.00 | 42 | 1017.6 |
| 20260503173556 | 19 | 281 | 0.0 | 6.4 | 0.00 | 0.00 | 0.00 | 42 | 1017.7 |
| 20260503173053 | 19 | 98 | 6.4 | 8.0 | 0.00 | 0.00 | 0.00 | 39 | 1017.8 |
| 20260503172550 | 18 | 172 | 1.6 | 6.4 | 0.00 | 0.00 | 0.00 | 44 | 1018.1 |
| 20260503172048 | 18 | 69 | 0.0 | 4.8 | 0.00 | 0.00 | 0.00 | 43 | 1017.9 |
| 20260503171544 | 19 | 12 | 4.8 | 8.0 | 0.00 | 0.00 | 0.00 | 39 | 1017.9 |
| 20260503171041 | 19 | 148 | 6.4 | 6.4 | 0.00 | 0.00 | 0.00 | 40 | 1017.9 |
| 20260503170537 | 18 | 100 | 3.2 | 4.8 | 0.00 | 0.00 | 0.00 | 44 | 1018.1 |
| 20260503150930 | 16 | 52 | 4.8 | 6.4 | 0.00 | 0.00 | 0.00 | 45 | 1019.2 |
| 20260503150427 | 16 | 66 | 4.8 | 9.7 | 0.00 | 0.00 | 0.00 | 44 | 1019.2 |
| 20260503131320 | 12 | 84 | 4.8 | 8.0 | 0.05 | 0.00 | 0.00 | 60 | 1018.5 |
| 20260503130817 | 12 | 60 | 0.0 | 4.8 | 0.00 | 0.00 | 0.00 | 62 | 1018.6 |
| 20260503130315 | 12 | 79 | 3.2 | 4.8 | 0.00 | 0.00 | 0.00 | 64 | 1018.6 |
| 20260503110708 | 5 | 100 | 3.2 | 3.2 | 0.00 | 0.00 | 0.00 | 98 | 1017.5 |
| 20260503110206 | 5 | 92 | 1.6 | 3.2 | 0.00 | 0.00 | 0.00 | 98 | 1017.3 |
| 20260503100132 | 6 | 84 | 3.2 | 4.8 | 0.00 | 0.00 | 0.00 | 98 | 1016.4 |
| 20260503081521 | 7 | 116 | 0.0 | 3.2 | 0.00 | 0.00 | 0.00 | 97 | 1015.3 |
| 20260503081019 | 7 | 102 | 1.6 | 3.2 | 0.00 | 0.00 | 0.00 | 97 | 1015.4 |
| 20260503080515 | 7 | 63 | 3.2 | 4.8 | 0.00 | 0.00 | 0.00 | 97 | 1015.3 |
| 20260503072448 | 7 | 89 | 3.2 | 3.2 | 0.00 | 0.00 | 0.00 | 97 | 1014.9 |
| 20260503071945 | 8 | 97 | 3.2 | 4.8 | 0.00 | 0.00 | 0.00 | 97 | 1014.9 |
| 20260503071442 | 8 | 86 | 3.2 | 3.2 | 0.00 | 0.00 | 0.00 | 97 | 1014.8 |
| 20260503070938 | 8 | 101 | 3.2 | 4.8 | 0.00 | 0.00 | 0.00 | 97 | 1014.8 |
| 20260503070435 | 8 | 108 | 0.0 | 3.2 | 0.00 | 0.00 | 0.00 | 97 | 1014.7 |
| 20260503054849 | 10 | 84 | 3.2 | 3.2 | 0.00 | 0.00 | 0.00 | 97 | 1014.2 |
| 20260503054345 | 10 | 79 | 0.0 | 3.2 | 0.00 | 0.00 | 0.00 | 97 | 1014.5 |
| 20260503053843 | 10 | 86 | 4.8 | 4.8 | 0.00 | 0.00 | 0.00 | 96 | 1014.2 |
| 20260503053341 | 10 | 67 | 3.2 | 4.8 | 0.00 | 0.00 | 0.00 | 96 | 1014.2 |
| 20260503052837 | 10 | 97 | 3.2 | 4.8 | 0.00 | 0.00 | 0.00 | 96 | 1014.2 |
| 20260503052334 | 10 | 114 | 0.0 | 3.2 | 0.00 | 0.00 | 0.00 | 96 | 1014.1 |
| 20260503051830 | 10 | 97 | 1.6 | 3.2 | 0.00 | 0.00 | 0.00 | 96 | 1014.4 |
| 20260503051327 | 10 | 53 | 1.6 | 3.2 | 0.00 | 0.00 | 0.00 | 97 | 1014.2 |
| 20260503050823 | 10 | 74 | 1.6 | 3.2 | 0.00 | 0.00 | 0.00 | 97 | 1014.4 |
| 20260503050320 | 10 | 98 | 1.6 | 3.2 | 0.00 | 0.00 | 0.00 | 97 | 1014.4 |
| 20260503045818 | 10 | 73 | 1.6 | 3.2 | 0.00 | 0.00 | 0.00 | 97 | 1014.2 |
| 20260503045315 | 10 | 64 | 3.2 | 3.2 | 0.00 | 0.00 | 0.00 | 97 | 1014.2 |
| 20260503044811 | 10 | 67 | 1.6 | 3.2 | 0.00 | 0.00 | 0.00 | 97 | 1014.3 |
| 20260503044308 | 10 | 57 | 3.2 | 4.8 | 0.00 | 0.00 | 0.00 | 97 | 1014.2 |
| 20260503043806 | 10 | 75 | 3.2 | 4.8 | 0.00 | 0.00 | 0.00 | 97 | 1014.2 |
| 20260503043302 | 10 | 79 | 0.0 | 3.2 | 0.00 | 0.00 | 0.00 | 97 | 1014.2 |
| 20260503042758 | 10 | 95 | 1.6 | 3.2 | 0.00 | 0.00 | 0.00 | 97 | 1014.2 |
| 20260503042255 | 10 | 73 | 3.2 | 3.2 | 0.00 | 0.00 | 0.00 | 97 | 1014.2 |
| 20260503041751 | 10 | 77 | 1.6 | 3.2 | 0.00 | 0.00 | 0.00 | 97 | 1014.3 |
| 20260503041249 | 10 | 112 | 3.2 | 3.2 | 0.00 | 0.00 | 0.00 | 97 | 1014.3 |
| 20260503040746 | 10 | 110 | 1.6 | 3.2 | 0.00 | 0.00 | 0.00 | 97 | 1014.2 |
| 20260503040244 | 10 | 56 | 0.0 | 3.2 | 0.00 | 0.00 | 0.00 | 97 | 1014.3 |
| 20260503035740 | 10 | 51 | 1.6 | 3.2 | 0.00 | 1.24 | 1.24 | 97 | 1014.3 |
| 20260503035238 | 10 | 71 | 1.6 | 3.2 | 0.00 | 1.24 | 1.24 | 97 | 1014.0 |
| 20260503034735 | 10 | 102 | 1.6 | 4.8 | 0.00 | 1.24 | 1.24 | 97 | 1014.1 |
| 20260503034232 | 10 | 83 | 3.2 | 4.8 | 0.00 | 1.24 | 1.24 | 97 | 1014.1 |
| 20260503033729 | 10 | 75 | 0.0 | 3.2 | 0.00 | 1.24 | 1.24 | 97 | 1014.2 |
| 20260503033227 | 10 | 84 | 1.6 | 3.2 | 0.00 | 1.24 | 1.24 | 97 | 1013.9 |
| 20260503032725 | 10 | 92 | 1.6 | 3.2 | 0.00 | 1.24 | 1.24 | 97 | 1014.0 |
| 20260503032223 | 10 | 75 | 1.6 | 3.2 | 0.00 | 1.24 | 1.24 | 97 | 1014.0 |
| 20260503031720 | 10 | 71 | 1.6 | 3.2 | 0.00 | 1.24 | 1.24 | 97 | 1014.0 |
| 20260503031218 | 10 | 62 | 3.2 | 4.8 | 0.00 | 1.24 | 1.24 | 96 | 1013.9 |
| 20260503030714 | 10 | 49 | 3.2 | 4.8 | 0.00 | 1.24 | 1.24 | 97 | 1014.0 |
| 20260503030210 | 10 | 74 | 3.2 | 4.8 | 0.00 | 1.24 | 1.24 | 96 | 1013.7 |
| 20260503025708 | 10 | 53 | 3.2 | 4.8 | 0.00 | 1.24 | 1.24 | 96 | 1013.6 |
| 20260503025205 | 10 | 48 | 3.2 | 4.8 | 0.00 | 1.24 | 1.24 | 96 | 1013.5 |
| 20260503024701 | 10 | 67 | 4.8 | 4.8 | 0.00 | 1.24 | 1.24 | 96 | 1013.4 |
| 20260503024159 | 10 | 87 | 3.2 | 4.8 | 0.00 | 1.24 | 1.24 | 96 | 1013.3 |
| 20260503023656 | 10 | 94 | 1.6 | 3.2 | 0.00 | 1.24 | 1.24 | 96 | 1013.1 |
| 20260503023152 | 10 | 122 | 3.2 | 3.2 | 0.00 | 1.24 | 1.24 | 96 | 1013.0 |
| 20260503022649 | 10 | 100 | 1.6 | 3.2 | 0.00 | 1.24 | 1.24 | 96 | 1013.1 |
| 20260503022148 | 10 | 75 | 3.2 | 4.8 | 0.00 | 1.24 | 1.24 | 96 | 1013.0 |
| 20260503021645 | 10 | 84 | 3.2 | 3.2 | 0.00 | 1.24 | 1.24 | 96 | 1013.0 |
| 20260503021142 | 10 | 58 | 3.2 | 4.8 | 0.00 | 1.24 | 1.24 | 96 | 1012.9 |
| 20260503020639 | 10 | 108 | 3.2 | 4.8 | 0.00 | 1.24 | 1.24 | 96 | 1012.6 |
| 20260503020137 | 10 | 143 | 3.2 | 3.2 | 0.00 | 1.24 | 1.24 | 96 | 1012.8 |
| 20260503015633 | 10 | 82 | 0.0 | 3.2 | 0.00 | 1.24 | 1.24 | 96 | 1012.7 |
| 20260503015130 | 10 | 72 | 3.2 | 4.8 | 0.00 | 1.24 | 1.24 | 96 | 1012.6 |
| 20260503014626 | 10 | 69 | 3.2 | 4.8 | 0.00 | 1.24 | 1.24 | 95 | 1012.5 |
| 20260503014124 | 10 | 79 | 3.2 | 4.8 | 0.00 | 1.24 | 1.24 | 95 | 1012.4 |
| 20260503013621 | 10 | 75 | 3.2 | 4.8 | 0.00 | 1.24 | 1.24 | 95 | 1012.1 |
| 20260503013119 | 10 | 98 | 1.6 | 3.2 | 0.00 | 1.24 | 1.24 | 95 | 1012.3 |
| 20260503012616 | 10 | 82 | 3.2 | 4.8 | 0.00 | 1.24 | 1.24 | 95 | 1012.2 |
| 20260503012113 | 10 | 92 | 3.2 | 4.8 | 0.00 | 1.24 | 1.24 | 95 | 1012.1 |
| 20260503011609 | 10 | 85 | 3.2 | 4.8 | 0.00 | 1.24 | 1.24 | 94 | 1012.0 |
| 20260503011106 | 10 | 78 | 4.8 | 4.8 | 0.00 | 1.24 | 1.24 | 94 | 1011.7 |
| 20260503010602 | 10 | 80 | 1.6 | 3.2 | 0.00 | 1.24 | 1.24 | 93 | 1011.9 |
| 20260503010100 | 10 | 92 | 1.6 | 3.2 | 0.00 | 1.24 | 1.24 | 93 | 1011.8 |
| 20260503005557 | 11 | 127 | 0.0 | 3.2 | 0.00 | 1.24 | 1.24 | 93 | 1012.0 |
| 20260503005054 | 11 | 108 | 0.0 | 3.2 | 0.00 | 1.24 | 1.24 | 92 | 1012.1 |
| 20260503004550 | 11 | 89 | 3.2 | 4.8 | 0.00 | 1.24 | 1.24 | 92 | 1011.7 |
| 20260503004049 | 11 | 84 | 3.2 | 4.8 | 0.00 | 1.24 | 1.24 | 91 | 1011.6 |
| 20260503003545 | 11 | 84 | 1.6 | 3.2 | 0.00 | 1.24 | 1.24 | 91 | 1011.6 |
| 20260503003042 | 11 | 76 | 3.2 | 4.8 | 0.00 | 1.24 | 1.24 | 90 | 1011.8 |
| 20260503002539 | 11 | 97 | 3.2 | 4.8 | 0.00 | 1.24 | 1.24 | 90 | 1011.6 |
| 20260503002036 | 11 | 84 | 1.6 | 4.8 | 0.00 | 1.24 | 1.24 | 89 | 1011.5 |
| 20260503001532 | 12 | 94 | 3.2 | 4.8 | 0.00 | 1.24 | 1.24 | 88 | 1011.4 |
| 20260503001030 | 12 | 88 | 3.2 | 3.2 | 0.00 | 1.24 | 1.24 | 86 | 1011.4 |
| 20260503000527 | 12 | 74 | 3.2 | 3.2 | 0.00 | 1.24 | 1.24 | 85 | 1011.2 |
| 20260503000024 | 12 | 86 | 1.6 | 3.2 | 0.00 | 1.24 | 1.24 | 84 | 1011.0 |
| 20260502235520 | 13 | 115 | 1.6 | 3.2 | 0.00 | 1.24 | 1.24 | 83 | 1011.1 |
| 20260502235018 | 13 | 91 | 3.2 | 4.8 | 0.00 | 1.24 | 1.24 | 83 | 1011.0 |
| 20260502234514 | 13 | 63 | 0.0 | 3.2 | 0.00 | 1.24 | 1.24 | 82 | 1010.9 |
| 20260502234013 | 13 | 126 | 1.6 | 3.2 | 0.00 | 1.24 | 1.24 | 78 | 1010.9 |
| 20260502233512 | 13 | 114 | 0.0 | 4.8 | 0.00 | 1.24 | 1.24 | 78 | 1010.9 |
| 20260502233010 | 14 | 142 | 0.0 | 3.2 | 0.00 | 1.24 | 1.24 | 80 | 1010.8 |
| 20260502232506 | 14 | 121 | 1.6 | 3.2 | 0.00 | 1.24 | 1.24 | 79 | 1010.8 |
| 20260502232002 | 14 | 80 | 1.6 | 3.2 | 0.00 | 1.24 | 1.24 | 78 | 1010.9 |
| 20260502231500 | 14 | 122 | 1.6 | 3.2 | 0.00 | 1.24 | 1.24 | 77 | 1010.8 |
| 20260502230958 | 14 | 102 | 1.6 | 3.2 | 0.00 | 1.24 | 1.24 | 76 | 1010.8 |
| 20260502230455 | 14 | 136 | 1.6 | 3.2 | 0.00 | 1.24 | 1.24 | 78 | 1010.8 |
| 20260502225953 | 14 | 115 | 0.0 | 3.2 | 0.00 | 1.24 | 1.24 | 77 | 1010.7 |
| 20260502225450 | 14 | 63 | 0.0 | 3.2 | 0.00 | 1.24 | 1.24 | 76 | 1010.7 |
| 20260502224947 | 14 | 123 | 1.6 | 3.2 | 0.00 | 1.24 | 1.24 | 77 | 1010.8 |
| 20260502224443 | 14 | 89 | 0.0 | 3.2 | 0.00 | 1.24 | 1.24 | 77 | 1010.9 |
| 20260502223940 | 14 | 112 | 1.6 | 3.2 | 0.00 | 1.24 | 1.24 | 76 | 1010.7 |
| 20260502223438 | 14 | 121 | 0.0 | 1.6 | 0.00 | 1.24 | 1.24 | 76 | 1010.5 |
| 20260502222936 | 14 | 64 | 0.0 | 3.2 | 0.00 | 1.24 | 1.24 | 76 | 1010.6 |
| 20260502222433 | 14 | 121 | 1.6 | 3.2 | 0.00 | 1.24 | 1.24 | 76 | 1010.5 |
| 20260502221928 | 14 | 135 | 0.0 | 3.2 | 0.00 | 1.24 | 1.24 | 77 | 1010.6 |
| 20260502221425 | 14 | 82 | 4.8 | 6.4 | 0.00 | 1.24 | 1.24 | 74 | 1010.5 |
| 20260502220922 | 14 | 106 | 0.0 | 3.2 | 0.00 | 1.24 | 1.24 | 74 | 1010.6 |
| 20260502220417 | 14 | 175 | 3.2 | 3.2 | 0.00 | 1.24 | 1.24 | 74 | 1010.6 |
| 20260502215914 | 14 | 91 | 1.6 | 4.8 | 0.00 | 1.24 | 1.24 | 76 | 1010.5 |
| 20260502215412 | 14 | 50 | 4.8 | 4.8 | 0.00 | 1.24 | 1.24 | 75 | 1010.6 |
| 20260502214908 | 14 | 105 | 0.0 | 4.8 | 0.00 | 1.24 | 1.24 | 74 | 1010.5 |
| 20260502214405 | 14 | 119 | 0.0 | 1.6 | 0.00 | 1.24 | 1.24 | 74 | 1010.4 |
| 20260502213902 | 14 | 112 | 4.8 | 6.4 | 0.00 | 1.24 | 1.24 | 73 | 1010.4 |
| 20260502213359 | 14 | 118 | 1.6 | 3.2 | 0.00 | 1.24 | 1.24 | 74 | 1010.3 |
| 20260502212858 | 14 | 121 | 4.8 | 8.0 | 0.00 | 1.24 | 1.24 | 73 | 1010.2 |
| 20260502212356 | 14 | 98 | 4.8 | 8.0 | 0.00 | 1.24 | 1.24 | 73 | 1010.5 |
| 20260502211853 | 14 | 97 | 4.8 | 11.3 | 0.00 | 1.24 | 1.24 | 74 | 1010.3 |
| 20260502211349 | 14 | 101 | 0.0 | 6.4 | 0.00 | 1.24 | 1.24 | 74 | 1010.2 |
| 20260502210846 | 14 | 141 | 4.8 | 4.8 | 0.00 | 1.24 | 1.24 | 74 | 1010.3 |
| 20260502210343 | 14 | 214 | 3.2 | 8.0 | 0.00 | 1.24 | 1.24 | 72 | 1010.3 |
| 20260502205841 | 14 | 203 | 0.0 | 4.8 | 0.00 | 1.24 | 1.24 | 75 | 1010.4 |
| 20260502205336 | 14 | 169 | 3.2 | 6.4 | 0.00 | 1.24 | 1.24 | 73 | 1010.6 |
| 20260502204834 | 14 | 220 | 1.6 | 8.0 | 0.00 | 1.24 | 1.24 | 71 | 1010.5 |
| 20260502204331 | 14 | 54 | 8.0 | 8.0 | 0.00 | 1.24 | 1.24 | 74 | 1010.5 |
| 20260502203828 | 13 | 94 | 4.8 | 4.8 | 0.00 | 1.24 | 1.24 | 74 | 1010.5 |
| 20260502203326 | 13 | 158 | 3.2 | 3.2 | 0.00 | 1.24 | 1.24 | 76 | 1010.4 |
| 20260502202826 | 13 | 60 | 1.6 | 4.8 | 0.00 | 1.24 | 1.24 | 76 | 1010.4 |
| 20260502202324 | 13 | 169 | 3.2 | 6.4 | 0.00 | 1.24 | 1.24 | 76 | 1010.5 |
| 20260502201822 | 13 | 116 | 3.2 | 4.8 | 0.00 | 1.24 | 1.24 | 78 | 1010.3 |
| 20260502201318 | 13 | 158 | 3.2 | 4.8 | 0.00 | 1.24 | 1.24 | 79 | 1010.5 |
| 20260502200814 | 13 | 148 | 6.4 | 8.0 | 0.00 | 1.24 | 1.24 | 77 | 1010.7 |
| 20260502200310 | 13 | 124 | 4.8 | 8.0 | 0.00 | 1.24 | 1.24 | 76 | 1010.9 |
| 20260502195808 | 13 | 215 | 1.6 | 6.4 | 0.00 | 1.24 | 1.24 | 76 | 1010.7 |
| 20260502195305 | 13 | 68 | 6.4 | 8.0 | 0.00 | 1.24 | 1.24 | 76 | 1011.2 |
| 20260502194801 | 13 | 131 | 0.0 | 4.8 | 0.00 | 1.24 | 1.24 | 80 | 1011.0 |
| 20260502194258 | 13 | 80 | 4.8 | 4.8 | 0.00 | 1.24 | 1.24 | 83 | 1010.9 |
| 20260502193754 | 13 | 235 | 0.0 | 4.8 | 0.00 | 1.24 | 1.24 | 80 | 1011.0 |
| 20260502193252 | 13 | 116 | 3.2 | 6.4 | 0.00 | 1.24 | 1.24 | 80 | 1010.9 |
| 20260502192751 | 13 | 141 | 6.4 | 11.3 | 0.00 | 1.24 | 1.24 | 79 | 1010.9 |
| 20260502192249 | 13 | 97 | 3.2 | 8.0 | 0.00 | 1.24 | 1.24 | 80 | 1010.8 |
| 20260502191746 | 13 | 155 | 3.2 | 8.0 | 0.00 | 1.24 | 1.24 | 78 | 1011.1 |
| 20260502191244 | 13 | 105 | 4.8 | 6.4 | 0.00 | 1.24 | 1.24 | 80 | 1011.3 |
| 20260502190741 | 13 | 84 | 1.6 | 6.4 | 0.00 | 1.24 | 1.24 | 81 | 1011.1 |
| 20260502190238 | 13 | 66 | 0.0 | 6.4 | 0.00 | 1.24 | 1.24 | 83 | 1011.1 |
| 20260502185733 | 13 | 130 | 3.2 | 8.0 | 0.00 | 1.24 | 1.24 | 81 | 1011.0 |